User: anonymous
Location: Unspecified
(0.0000°N, 0.0000°E)
Time: 18:49:19
(UTC+00:00)
Language:

USA 161 - Orbit

View from above orbital plane
View from above orbital plane
View from above satellite
View from above satellite

Ground track
Ground track

The orbit data is extracted from the following two-line orbital elements,

1 26934U 01044A   14224.98299964 0.00010000  00000-0  13301-3 0    07
2 26934  96.9959 356.1870 0003500 325.5200  34.4798 15.58169321    04
Epoch (UTC): 12 August 2014 23:35:31
Eccentricity: 0.0003500
inclination: 96.9959°
perigee height: 390 km
apogee height: 395 km
right ascension of ascending node: 356.1870°
argument of perigee: 325.5200°
revolutions per day: 15.58169321
mean anomaly at epoch: 34.4798°
orbit number at epoch: 0

The dashed part of the orbit path shows where the satellite is in the earth's shadow,  

DLR